EWG10L LGKO-EDDK

Flight info

Callsign EWG10L
Flight time N/A
Altitude 38000
Route LARKI UL609 MES UG18 FSK UL608 DISOR DCT LONTA UL608 DOLEV DCT YUYUH DCT KOMAR DCT KUSIB DCT GORPA DCT GIMIX DCT ERKIR DCT VEKIR DCT UMDAS T844 ASKIK/N0366F240 T840 GULKO GULKO1B
Aircraft A320/M-SDE3FGHIRWY/LB1

Departure

Time N/A
Airport Kos International Airport "Ippokratis" (LGKO)

Arrival

Time 2026-04-26 20:37
Airport Cologne Bonn Airport (EDDK)
Time Latitude Longitude Altitude Speed Heading
2026-04-26 17:50 38.26903 25.88862 37994 ft 415 kts 323°
2026-04-26 17:51 38.31506 25.84421 38002 ft 415 kts 322°
2026-04-26 17:51 38.36094 25.79966 38000 ft 415 kts 322°
2026-04-26 17:52 38.40677 25.75480 38012 ft 416 kts 322°
2026-04-26 17:52 38.45277 25.71000 38015 ft 416 kts 322°
2026-04-26 17:53 38.49870 25.66497 38014 ft 416 kts 322°
2026-04-26 17:54 38.56760 25.59746 38013 ft 416 kts 322°
2026-04-26 17:54 38.61356 25.55226 38020 ft 416 kts 322°
2026-04-26 17:55 38.65941 25.50714 38022 ft 416 kts 322°
2026-04-26 17:55 38.70535 25.46206 38038 ft 416 kts 322°
2026-04-26 17:56 38.75080 25.41709 38037 ft 415 kts 322°
2026-04-26 17:57 38.84220 25.32652 38022 ft 415 kts 322°
2026-04-26 17:57 38.88782 25.28123 38025 ft 415 kts 321°
2026-04-26 17:58 38.97916 25.19043 38034 ft 415 kts 321°
2026-04-26 17:59 39.03993 25.12984 38033 ft 415 kts 321°
2026-04-26 17:59 39.08557 25.08418 38034 ft 416 kts 321°
2026-04-26 18:00 39.13121 25.03843 38036 ft 416 kts 321°
2026-04-26 18:00 39.17686 24.99280 38031 ft 416 kts 321°
2026-04-26 18:01 39.22245 24.94693 38040 ft 416 kts 321°
2026-04-26 18:01 39.26812 24.90118 38037 ft 415 kts 321°
2026-04-26 18:02 39.30603 24.86304 38036 ft 415 kts 320°
2026-04-26 18:02 39.35917 24.80918 38035 ft 415 kts 321°
2026-04-26 18:03 39.40473 24.76320 38034 ft 415 kts 321°
2026-04-26 18:03 39.45029 24.71718 38033 ft 415 kts 321°
2026-04-26 18:04 39.49567 24.67107 38045 ft 415 kts 320°
2026-04-26 18:05 39.56375 24.60178 38037 ft 415 kts 320°
2026-04-26 18:05 39.60915 24.55570 38030 ft 414 kts 320°
2026-04-26 18:06 39.65439 24.50942 38026 ft 414 kts 320°
2026-04-26 18:06 39.69961 24.46311 38020 ft 414 kts 320°
2026-04-26 18:07 39.74458 24.41717 38019 ft 414 kts 320°
2026-04-26 18:07 39.79003 24.37048 38019 ft 414 kts 320°
2026-04-26 18:08 39.83502 24.32431 38014 ft 415 kts 320°
2026-04-26 18:08 39.88027 24.27751 38015 ft 416 kts 320°
2026-04-26 18:09 39.92571 24.23084 38016 ft 416 kts 320°
2026-04-26 18:09 39.97103 24.18387 38021 ft 416 kts 320°
2026-04-26 18:10 40.01633 24.13695 38038 ft 416 kts 320°
2026-04-26 18:10 40.06165 24.08999 38032 ft 416 kts 319°
2026-04-26 18:11 40.10693 24.04295 38022 ft 416 kts 320°
2026-04-26 18:11 40.15226 23.99583 38011 ft 417 kts 319°
2026-04-26 18:12 40.19762 23.94860 38011 ft 417 kts 319°
2026-04-26 18:12 40.24299 23.90123 38011 ft 417 kts 319°
2026-04-26 18:13 40.28825 23.85373 38008 ft 418 kts 319°
2026-04-26 18:13 40.33364 23.80620 38009 ft 418 kts 319°
2026-04-26 18:14 40.37904 23.75858 38013 ft 418 kts 319°
2026-04-26 18:14 40.42447 23.71090 38007 ft 418 kts 319°
2026-04-26 18:15 40.46988 23.66297 38007 ft 419 kts 319°
2026-04-26 18:15 40.51537 23.61501 38011 ft 419 kts 319°
2026-04-26 18:16 40.56085 23.56693 38023 ft 420 kts 319°
2026-04-26 18:16 40.62905 23.49470 38016 ft 419 kts 319°
2026-04-26 18:17 40.67438 23.44647 38008 ft 419 kts 319°
2026-04-26 18:17 40.71978 23.39821 37997 ft 419 kts 319°
2026-04-26 18:18 40.76486 23.35010 37987 ft 420 kts 319°
2026-04-26 18:18 40.81031 23.30166 38001 ft 420 kts 319°
2026-04-26 18:19 40.85565 23.25300 37999 ft 420 kts 319°
2026-04-26 18:19 40.90097 23.20449 38000 ft 420 kts 319°
2026-04-26 18:20 40.94630 23.15581 37998 ft 420 kts 319°
2026-04-26 18:20 40.98396 23.11529 38001 ft 420 kts 319°
2026-04-26 18:21 41.03693 23.05825 37984 ft 421 kts 319°
2026-04-26 18:21 41.08235 23.00929 38009 ft 421 kts 318°
2026-04-26 18:22 41.12287 22.95391 38006 ft 418 kts 308°
2026-04-26 18:22 41.16037 22.89502 38005 ft 418 kts 309°
2026-04-26 18:23 41.19787 22.83604 38012 ft 418 kts 309°
2026-04-26 18:23 41.23533 22.77699 38001 ft 418 kts 308°
2026-04-26 18:24 41.27362 22.71946 37995 ft 419 kts 311°
2026-04-26 18:24 41.31301 22.66227 38004 ft 419 kts 310°
2026-04-26 18:25 41.35223 22.60477 38017 ft 420 kts 310°
2026-04-26 18:25 41.39159 22.54730 38021 ft 420 kts 310°
2026-04-26 18:26 41.43075 22.48967 38028 ft 420 kts 310°
2026-04-26 18:26 41.46997 22.43190 38034 ft 420 kts 310°
2026-04-26 18:27 41.50919 22.37399 38032 ft 421 kts 310°
2026-04-26 18:27 41.54839 22.31598 38040 ft 421 kts 310°
2026-04-26 18:28 41.58754 22.25788 38039 ft 421 kts 310°
2026-04-26 18:28 41.62672 22.19978 38039 ft 421 kts 310°
2026-04-26 18:29 41.66585 22.14156 38056 ft 421 kts 310°
2026-04-26 18:29 41.70501 22.08323 38053 ft 422 kts 310°
2026-04-26 18:30 41.74418 22.02483 38049 ft 422 kts 310°
2026-04-26 18:30 41.78308 21.96657 38058 ft 422 kts 310°
2026-04-26 18:31 41.82246 21.90743 38069 ft 422 kts 310°
2026-04-26 18:31 41.86159 21.84865 38073 ft 422 kts 310°
2026-04-26 18:32 41.90067 21.78976 38081 ft 423 kts 310°
2026-04-26 18:32 41.93980 21.73074 38093 ft 424 kts 310°
2026-04-26 18:33 41.97890 21.67159 38085 ft 424 kts 310°
2026-04-26 18:33 42.01785 21.61271 38081 ft 424 kts 310°
2026-04-26 18:34 42.05700 21.55327 38079 ft 424 kts 310°
2026-04-26 18:34 42.09611 21.49367 38086 ft 425 kts 310°
2026-04-26 18:35 42.13527 21.43400 38077 ft 425 kts 310°
2026-04-26 18:35 42.17432 21.37408 38104 ft 425 kts 309°
2026-04-26 18:36 42.21251 21.31330 38110 ft 425 kts 309°
2026-04-26 18:36 42.25081 21.25252 38114 ft 425 kts 309°
2026-04-26 18:37 42.28909 21.19166 38112 ft 425 kts 309°
2026-04-26 18:37 42.32736 21.13073 38120 ft 425 kts 309°
2026-04-26 18:38 42.36559 21.06966 38122 ft 426 kts 309°
2026-04-26 18:38 42.40385 21.00847 38124 ft 426 kts 309°
2026-04-26 18:39 42.44206 20.94721 38138 ft 426 kts 309°
2026-04-26 18:39 42.48031 20.88574 38147 ft 427 kts 309°
2026-04-26 18:40 42.51854 20.82411 38138 ft 427 kts 309°
2026-04-26 18:40 42.55684 20.76240 38133 ft 428 kts 309°
2026-04-26 18:41 42.59504 20.70054 38147 ft 428 kts 309°
2026-04-26 18:41 42.63306 20.63894 38126 ft 428 kts 309°
2026-04-26 18:42 42.67126 20.57684 38132 ft 428 kts 309°
2026-04-26 18:42 42.70948 20.51479 38131 ft 428 kts 309°
2026-04-26 18:43 42.74763 20.45266 38132 ft 428 kts 309°
2026-04-26 18:43 42.78577 20.39039 38148 ft 428 kts 309°
2026-04-26 18:44 42.82381 20.32795 38154 ft 429 kts 309°
2026-04-26 18:44 42.86195 20.26545 38156 ft 429 kts 309°
2026-04-26 18:45 42.90006 20.20287 38165 ft 429 kts 308°
2026-04-26 18:45 42.93799 20.14008 38165 ft 429 kts 308°
2026-04-26 18:46 42.97602 20.07743 38162 ft 429 kts 309°
2026-04-26 18:46 43.01377 20.01491 38168 ft 430 kts 309°
2026-04-26 18:47 43.05181 19.95187 38189 ft 430 kts 309°
2026-04-26 18:47 43.08988 19.88878 38188 ft 430 kts 309°
2026-04-26 18:48 43.12784 19.82552 38181 ft 430 kts 308°
2026-04-26 18:48 43.16583 19.76226 38170 ft 430 kts 309°
2026-04-26 18:49 43.20368 19.69892 38189 ft 430 kts 308°
2026-04-26 18:49 43.23513 19.64605 38184 ft 430 kts 308°
2026-04-26 18:50 43.27424 19.58384 38187 ft 430 kts 310°
2026-04-26 18:50 43.31378 19.52210 38193 ft 430 kts 310°
2026-04-26 18:51 43.35302 19.45998 38171 ft 430 kts 310°
2026-04-26 18:51 43.39223 19.39794 38189 ft 430 kts 310°
2026-04-26 18:52 43.43141 19.33570 38185 ft 430 kts 310°
2026-04-26 18:52 43.47061 19.27344 38174 ft 430 kts 310°
2026-04-26 18:53 43.50982 19.21115 38165 ft 430 kts 310°
2026-04-26 18:53 43.54888 19.14863 38186 ft 430 kts 310°
2026-04-26 18:54 43.58803 19.08615 38180 ft 430 kts 310°
2026-04-26 18:54 43.62681 19.02393 38183 ft 430 kts 310°
2026-04-26 18:55 43.66587 18.96131 38178 ft 430 kts 310°
2026-04-26 18:55 43.70500 18.89815 38175 ft 430 kts 310°
2026-04-26 18:56 43.74370 18.83575 38183 ft 430 kts 310°
2026-04-26 18:56 43.78264 18.77281 38175 ft 430 kts 310°
2026-04-26 18:57 43.81522 18.72004 38170 ft 430 kts 310°
2026-04-26 18:57 43.86038 18.64680 38178 ft 430 kts 309°
2026-04-26 18:58 43.89924 18.58368 38174 ft 430 kts 309°
2026-04-26 18:58 43.93791 18.52035 38171 ft 430 kts 309°
2026-04-26 18:59 43.97663 18.45708 38172 ft 430 kts 309°
2026-04-26 18:59 44.01531 18.39373 38172 ft 430 kts 309°
2026-04-26 19:00 44.05386 18.33023 38170 ft 430 kts 309°
2026-04-26 19:00 44.09249 18.26691 38172 ft 429 kts 309°
2026-04-26 19:01 44.13102 18.20338 38187 ft 429 kts 309°
2026-04-26 19:01 44.16951 18.13984 38191 ft 429 kts 309°
2026-04-26 19:02 44.20793 18.07625 38175 ft 429 kts 309°
2026-04-26 19:02 44.23971 18.02322 38172 ft 429 kts 309°
2026-04-26 19:03 44.28448 17.94868 38172 ft 429 kts 309°
2026-04-26 19:03 44.32282 17.88487 38172 ft 429 kts 309°
2026-04-26 19:04 44.36080 17.82138 38171 ft 429 kts 309°
2026-04-26 19:04 44.39900 17.75746 38185 ft 429 kts 309°
2026-04-26 19:05 44.45622 17.66134 38183 ft 428 kts 308°
2026-04-26 19:06 44.49425 17.59714 38182 ft 428 kts 308°
2026-04-26 19:06 44.53231 17.53291 38179 ft 428 kts 308°
2026-04-26 19:07 44.57044 17.46872 38172 ft 428 kts 308°
2026-04-26 19:07 44.60837 17.40424 38169 ft 428 kts 308°
2026-04-26 19:08 44.64631 17.33979 38180 ft 428 kts 308°
2026-04-26 19:08 44.68423 17.27516 38179 ft 428 kts 308°
2026-04-26 19:09 44.72208 17.21053 38177 ft 429 kts 308°
2026-04-26 19:09 44.75995 17.14577 38174 ft 428 kts 308°
2026-04-26 19:10 44.79770 17.08087 38173 ft 428 kts 308°
2026-04-26 19:10 44.83548 17.01593 38173 ft 429 kts 308°
2026-04-26 19:11 44.87327 16.95095 38175 ft 429 kts 307°
2026-04-26 19:11 44.91095 16.88578 38180 ft 429 kts 307°
2026-04-26 19:12 44.94864 16.82054 38173 ft 429 kts 307°
2026-04-26 19:12 44.98618 16.75522 38168 ft 429 kts 307°
2026-04-26 19:13 45.02380 16.68985 38170 ft 429 kts 307°
2026-04-26 19:13 45.06123 16.62421 38170 ft 429 kts 307°
2026-04-26 19:14 45.09871 16.55855 38167 ft 429 kts 307°
2026-04-26 19:14 45.13611 16.49274 38176 ft 429 kts 307°
2026-04-26 19:15 45.17323 16.42729 38175 ft 429 kts 307°
2026-04-26 19:15 45.21090 16.36111 38195 ft 429 kts 307°
2026-04-26 19:16 45.24806 16.29571 38198 ft 428 kts 307°
2026-04-26 19:16 45.28535 16.22993 38196 ft 427 kts 307°
2026-04-26 19:17 45.32246 16.16415 38198 ft 427 kts 306°
2026-04-26 19:17 45.35962 16.09832 38197 ft 427 kts 306°
2026-04-26 19:18 45.39662 16.03230 38184 ft 427 kts 306°
2026-04-26 19:18 45.43370 15.96620 38180 ft 427 kts 306°
2026-04-26 19:19 45.47076 15.89994 38200 ft 428 kts 306°
2026-04-26 19:19 45.50783 15.83357 38193 ft 428 kts 306°
2026-04-26 19:20 45.54476 15.76709 38191 ft 428 kts 306°
2026-04-26 19:20 45.58175 15.70050 38190 ft 428 kts 306°
2026-04-26 19:21 45.61866 15.63380 38192 ft 428 kts 306°
2026-04-26 19:21 45.65552 15.56710 38193 ft 428 kts 306°
2026-04-26 19:22 45.69236 15.50019 38192 ft 428 kts 306°
2026-04-26 19:22 45.72921 15.43330 38215 ft 428 kts 306°
2026-04-26 19:23 45.76595 15.36632 38218 ft 428 kts 306°
2026-04-26 19:23 45.79981 15.29653 38213 ft 426 kts 301°
2026-04-26 19:24 45.83295 15.22597 38211 ft 427 kts 302°
2026-04-26 19:24 45.88257 15.11991 38205 ft 427 kts 302°
2026-04-26 19:25 45.90444 15.07296 38200 ft 427 kts 302°
2026-04-26 19:25 45.94861 14.97812 38182 ft 427 kts 302°
2026-04-26 19:26 45.98218 14.90830 38185 ft 429 kts 307°
2026-04-26 19:26 46.02075 14.84211 38196 ft 429 kts 307°
2026-04-26 19:27 46.05829 14.77564 38191 ft 428 kts 307°
2026-04-26 19:27 46.09543 14.70939 38181 ft 428 kts 307°
2026-04-26 19:28 46.13283 14.64264 38180 ft 428 kts 307°
2026-04-26 19:28 46.17009 14.57589 38177 ft 427 kts 307°
2026-04-26 19:29 46.20734 14.50915 38174 ft 427 kts 307°
2026-04-26 19:29 46.24450 14.44218 38190 ft 426 kts 306°
2026-04-26 19:30 46.28152 14.37535 38195 ft 425 kts 306°
2026-04-26 19:30 46.31240 14.31947 38189 ft 424 kts 307°
2026-04-26 19:31 46.35519 14.24199 38180 ft 424 kts 306°
2026-04-26 19:31 46.39198 14.17535 38155 ft 423 kts 307°
2026-04-26 19:32 46.42862 14.10855 38153 ft 423 kts 306°
2026-04-26 19:32 46.46536 14.04171 38137 ft 424 kts 306°
2026-04-26 19:33 46.50192 13.97465 38136 ft 424 kts 306°
2026-04-26 19:33 46.53846 13.90764 38156 ft 425 kts 306°
2026-04-26 19:34 46.57517 13.84012 38138 ft 424 kts 306°
2026-04-26 19:34 46.61176 13.77268 38135 ft 425 kts 306°
2026-04-26 19:35 46.64823 13.70548 38133 ft 426 kts 306°
2026-04-26 19:35 46.68481 13.63759 38131 ft 426 kts 306°
2026-04-26 19:36 46.70930 13.59215 38136 ft 426 kts 306°
2026-04-26 19:36 46.75806 13.50157 38143 ft 426 kts 307°
2026-04-26 19:37 46.79458 13.43335 38149 ft 427 kts 306°
2026-04-26 19:37 46.83105 13.36492 38169 ft 427 kts 306°
2026-04-26 19:38 46.86137 13.30817 38173 ft 426 kts 307°
2026-04-26 19:38 46.89783 13.23986 38169 ft 426 kts 306°
2026-04-26 19:39 46.93428 13.17138 38169 ft 427 kts 306°
2026-04-26 19:39 46.97054 13.10260 38172 ft 427 kts 306°
2026-04-26 19:40 47.00686 13.03389 38181 ft 427 kts 306°
2026-04-26 19:40 47.04320 12.96503 38176 ft 427 kts 306°
2026-04-26 19:41 47.07944 12.89609 38196 ft 426 kts 306°
2026-04-26 19:41 47.10953 12.83874 38190 ft 426 kts 306°
2026-04-26 19:42 47.15176 12.75803 38189 ft 426 kts 306°
2026-04-26 19:42 47.18782 12.68874 38195 ft 427 kts 306°
2026-04-26 19:43 47.22392 12.61953 38191 ft 427 kts 306°
2026-04-26 19:43 47.25992 12.55010 38196 ft 427 kts 306°
2026-04-26 19:44 47.29598 12.48061 38196 ft 427 kts 306°
2026-04-26 19:44 47.33189 12.41099 38193 ft 427 kts 306°
2026-04-26 19:45 47.36786 12.34118 38206 ft 427 kts 306°
2026-04-26 19:45 47.40376 12.27133 38210 ft 427 kts 306°
2026-04-26 19:46 47.43964 12.20144 38203 ft 427 kts 306°
2026-04-26 19:46 47.47522 12.13178 38205 ft 427 kts 306°
2026-04-26 19:47 47.50517 12.07302 38204 ft 427 kts 306°
2026-04-26 19:47 47.54709 11.99171 38203 ft 428 kts 310°
2026-04-26 19:48 47.58654 11.92561 38207 ft 428 kts 310°
2026-04-26 19:48 47.62547 11.85894 38223 ft 428 kts 310°
2026-04-26 19:49 47.66439 11.79221 38213 ft 428 kts 310°
2026-04-26 19:49 47.70323 11.72538 38211 ft 427 kts 310°
2026-04-26 19:50 47.74207 11.65848 38216 ft 427 kts 309°
2026-04-26 19:50 47.78081 11.59128 38214 ft 427 kts 309°
2026-04-26 19:51 47.81954 11.52433 38225 ft 427 kts 309°
2026-04-26 19:51 47.85809 11.45713 38229 ft 427 kts 309°
2026-04-26 19:52 47.89670 11.38983 38251 ft 427 kts 309°
2026-04-26 19:52 47.93528 11.32252 38253 ft 427 kts 309°
2026-04-26 19:53 47.97388 11.25513 38251 ft 427 kts 309°
2026-04-26 19:53 48.01233 11.18767 38238 ft 427 kts 309°
2026-04-26 19:54 48.05069 11.12012 38225 ft 426 kts 309°
2026-04-26 19:54 48.08903 11.05234 38217 ft 426 kts 309°
2026-04-26 19:55 48.12704 10.98504 38231 ft 426 kts 309°
2026-04-26 19:55 48.16530 10.91724 38228 ft 426 kts 309°
2026-04-26 19:56 48.20351 10.84943 38221 ft 425 kts 309°
2026-04-26 19:56 48.24157 10.78157 38218 ft 425 kts 309°
2026-04-26 19:57 48.27957 10.71360 38209 ft 425 kts 309°
2026-04-26 19:57 48.31763 10.64550 38215 ft 426 kts 309°
2026-04-26 19:58 48.35560 10.57719 37821 ft 425 kts 309°
2026-04-26 19:58 48.37460 10.54304 37473 ft 424 kts 309°
2026-04-26 19:58 48.39349 10.50901 37126 ft 424 kts 309°
2026-04-26 19:59 48.41245 10.47480 36782 ft 425 kts 309°
2026-04-26 19:59 48.43135 10.44069 36431 ft 425 kts 309°
2026-04-26 19:59 48.45029 10.40644 36121 ft 426 kts 309°
2026-04-26 19:59 48.46923 10.37207 35778 ft 426 kts 309°
2026-04-26 20:00 48.48816 10.33769 35454 ft 426 kts 309°
2026-04-26 20:00 48.50717 10.30332 35142 ft 427 kts 309°
2026-04-26 20:00 48.52612 10.26892 34819 ft 427 kts 309°
2026-04-26 20:00 48.54509 10.23430 34499 ft 428 kts 309°
2026-04-26 20:01 48.56402 10.19972 34283 ft 428 kts 309°
2026-04-26 20:01 48.58303 10.16500 34237 ft 429 kts 309°
2026-04-26 20:01 48.62116 10.09516 34232 ft 431 kts 309°
2026-04-26 20:02 48.65939 10.02523 34231 ft 431 kts 309°
2026-04-26 20:02 48.69093 9.96725 34237 ft 429 kts 309°
2026-04-26 20:03 48.73562 9.88702 34234 ft 429 kts 314°
2026-04-26 20:03 48.77718 9.82235 34238 ft 429 kts 314°
2026-04-26 20:04 48.81839 9.75702 34237 ft 428 kts 313°
2026-04-26 20:04 48.85946 9.69169 34239 ft 428 kts 314°
2026-04-26 20:05 48.90056 9.62644 34237 ft 427 kts 314°
2026-04-26 20:05 48.94149 9.56102 34248 ft 426 kts 314°
2026-04-26 20:06 48.98227 9.49574 34248 ft 425 kts 314°
2026-04-26 20:06 49.02301 9.43045 34243 ft 425 kts 314°
2026-04-26 20:07 49.06371 9.36498 34242 ft 425 kts 314°
2026-04-26 20:07 49.10437 9.29952 34233 ft 425 kts 314°
2026-04-26 20:08 49.14487 9.23396 34251 ft 424 kts 314°
2026-04-26 20:08 49.18526 9.16846 34258 ft 423 kts 314°
2026-04-26 20:09 49.22562 9.10300 34262 ft 423 kts 314°
2026-04-26 20:09 49.26558 9.03768 34256 ft 423 kts 314°
2026-04-26 20:10 49.30580 8.97210 34240 ft 422 kts 314°
2026-04-26 20:10 49.34593 8.90633 34230 ft 422 kts 314°
2026-04-26 20:11 49.38807 8.84409 34238 ft 420 kts 324°
2026-04-26 20:12 49.46844 8.79218 34260 ft 421 kts 343°
2026-04-26 20:12 49.52479 8.76781 34241 ft 421 kts 343°
2026-04-26 20:13 49.58109 8.74317 34237 ft 419 kts 342°
2026-04-26 20:13 49.60862 8.73111 34239 ft 403 kts 343°
2026-04-26 20:13 49.63498 8.71948 34242 ft 386 kts 342°
2026-04-26 20:14 49.68566 8.69701 34082 ft 374 kts 342°
2026-04-26 20:14 49.71066 8.68612 33413 ft 374 kts 343°
2026-04-26 20:14 49.73571 8.67502 32723 ft 374 kts 342°
2026-04-26 20:14 49.76071 8.66393 32058 ft 374 kts 343°
2026-04-26 20:15 49.78566 8.65290 31539 ft 371 kts 342°
2026-04-26 20:15 49.81025 8.64193 31046 ft 367 kts 342°
2026-04-26 20:15 49.83438 8.63116 30568 ft 363 kts 342°
2026-04-26 20:15 49.85887 8.62029 30038 ft 360 kts 343°
2026-04-26 20:16 49.88279 8.60975 29559 ft 355 kts 342°
2026-04-26 20:16 49.90633 8.59918 29080 ft 350 kts 342°
2026-04-26 20:16 49.92959 8.58877 28640 ft 346 kts 342°
2026-04-26 20:16 49.95256 8.57854 28189 ft 341 kts 342°
2026-04-26 20:17 49.97530 8.56840 27732 ft 337 kts 342°
2026-04-26 20:17 49.99770 8.55832 27285 ft 334 kts 342°
2026-04-26 20:17 50.01993 8.54838 26832 ft 331 kts 342°
2026-04-26 20:17 50.03454 8.54178 26529 ft 329 kts 342°
2026-04-26 20:18 50.06379 8.52809 25925 ft 326 kts 339°
2026-04-26 20:18 50.08515 8.51651 25467 ft 324 kts 339°
2026-04-26 20:18 50.10644 8.50503 25017 ft 323 kts 339°
2026-04-26 20:18 50.12764 8.49354 24536 ft 323 kts 339°
2026-04-26 20:19 50.14884 8.48206 24073 ft 322 kts 339°
2026-04-26 20:19 50.16997 8.47064 23551 ft 321 kts 339°
2026-04-26 20:19 50.19105 8.45931 23090 ft 319 kts 339°
2026-04-26 20:19 50.21190 8.44797 22651 ft 316 kts 339°
2026-04-26 20:20 50.23262 8.43671 22193 ft 315 kts 339°
2026-04-26 20:20 50.25330 8.42551 21753 ft 314 kts 339°
2026-04-26 20:20 50.27359 8.41454 21313 ft 313 kts 339°
2026-04-26 20:20 50.29370 8.40182 20889 ft 310 kts 330°
2026-04-26 20:21 50.31235 8.38422 20464 ft 309 kts 326°
2026-04-26 20:21 50.33048 8.36608 20036 ft 309 kts 326°
2026-04-26 20:21 50.34837 8.34823 19622 ft 309 kts 326°
2026-04-26 20:21 50.36646 8.33004 19206 ft 310 kts 326°
2026-04-26 20:22 50.38461 8.31183 18781 ft 310 kts 326°
2026-04-26 20:22 50.40278 8.29366 18344 ft 310 kts 326°
2026-04-26 20:22 50.42095 8.27548 17920 ft 309 kts 326°
2026-04-26 20:22 50.43904 8.25745 17513 ft 308 kts 326°
2026-04-26 20:23 50.45704 8.23944 17106 ft 307 kts 326°
2026-04-26 20:23 50.47502 8.22149 16713 ft 305 kts 326°
2026-04-26 20:23 50.49292 8.20359 16314 ft 305 kts 326°
2026-04-26 20:23 50.51076 8.18560 15935 ft 304 kts 326°
2026-04-26 20:24 50.52851 8.16769 15542 ft 303 kts 326°
2026-04-26 20:24 50.54623 8.14985 15167 ft 302 kts 326°
2026-04-26 20:24 50.56387 8.13199 14780 ft 301 kts 326°
2026-04-26 20:24 50.58148 8.11419 14398 ft 301 kts 326°
2026-04-26 20:25 50.59904 8.09648 14004 ft 300 kts 327°
2026-04-26 20:25 50.60501 8.09045 13859 ft 300 kts 327°
2026-04-26 20:25 50.63403 8.06099 13171 ft 297 kts 326°
2026-04-26 20:25 50.65134 8.04336 12780 ft 295 kts 327°
2026-04-26 20:26 50.66858 8.02591 12375 ft 293 kts 327°
2026-04-26 20:26 50.68566 8.00860 11983 ft 291 kts 327°
2026-04-26 20:26 50.70264 7.99139 11586 ft 289 kts 327°
2026-04-26 20:26 50.71929 7.97448 11196 ft 287 kts 327°
2026-04-26 20:27 50.73480 7.95495 10789 ft 285 kts 312°
2026-04-26 20:27 50.74551 7.92845 10402 ft 284 kts 294°
2026-04-26 20:27 50.74972 7.89866 10104 ft 282 kts 275°
2026-04-26 20:27 50.74826 7.86775 9681 ft 282 kts 265°
2026-04-26 20:28 50.74543 7.83731 9283 ft 278 kts 265°
2026-04-26 20:28 50.74265 7.80724 8881 ft 275 kts 265°
2026-04-26 20:28 50.73993 7.77744 8479 ft 273 kts 265°
2026-04-26 20:28 50.73726 7.74796 8071 ft 271 kts 265°
2026-04-26 20:29 50.73552 7.72847 7788 ft 270 kts 265°
2026-04-26 20:29 50.73294 7.69934 7378 ft 266 kts 265°
2026-04-26 20:29 50.73031 7.67044 6902 ft 267 kts 264°
2026-04-26 20:29 50.72759 7.64143 6390 ft 267 kts 264°
2026-04-26 20:30 50.72492 7.61240 5855 ft 267 kts 264°
2026-04-26 20:30 50.72226 7.58333 5342 ft 267 kts 263°
2026-04-26 20:30 50.71960 7.55434 4838 ft 266 kts 262°
2026-04-26 20:30 50.71695 7.52551 4346 ft 264 kts 262°
2026-04-26 20:31 50.71438 7.49703 3960 ft 260 kts 262°
2026-04-26 20:31 50.71182 7.46910 3580 ft 255 kts 262°
2026-04-26 20:31 50.70931 7.44193 3343 ft 244 kts 261°
2026-04-26 20:31 50.70746 7.41603 3210 ft 231 kts 270°
2026-04-26 20:32 50.71005 7.39174 3094 ft 219 kts 289°
2026-04-26 20:32 50.71655 7.37083 3042 ft 206 kts 303°
2026-04-26 20:32 50.72524 7.35367 3014 ft 196 kts 314°
2026-04-26 20:32 50.73493 7.33898 2999 ft 191 kts 317°
2026-04-26 20:33 50.74453 7.32521 3027 ft 181 kts 318°
2026-04-26 20:33 50.75373 7.31199 2981 ft 174 kts 318°
2026-04-26 20:33 50.76245 7.29945 2798 ft 168 kts 318°
2026-04-26 20:33 50.77094 7.28723 2561 ft 166 kts 318°
2026-04-26 20:34 50.77938 7.27499 2340 ft 162 kts 319°
2026-04-26 20:34 50.78738 7.26341 2147 ft 150 kts 319°
2026-04-26 20:34 50.79492 7.25259 1929 ft 144 kts 320°
2026-04-26 20:34 50.80224 7.24205 1735 ft 141 kts 319°
2026-04-26 20:35 50.80943 7.23154 1555 ft 140 kts 319°
2026-04-26 20:35 50.81655 7.22122 1391 ft 138 kts 320°
2026-04-26 20:35 50.82363 7.21117 1188 ft 136 kts 321°
2026-04-26 20:35 50.83064 7.20131 999 ft 134 kts 320°
2026-04-26 20:36 50.83750 7.19130 830 ft 134 kts 319°
2026-04-26 20:36 50.84436 7.18132 645 ft 134 kts 320°
2026-04-26 20:36 50.85121 7.17135 467 ft 134 kts 320°
2026-04-26 20:36 50.85808 7.16149 323 ft 133 kts 320°
2026-04-26 20:37 50.86419 7.15271 283 ft 101 kts 318°
2026-04-26 20:37 50.86894 7.14583 261 ft 85 kts 317°
2026-04-26 20:37 50.87222 7.14096 246 ft 44 kts 311°
2026-04-26 20:37 50.87313 7.13755 239 ft 26 kts 282°
2026-04-26 20:38 50.87347 7.13498 235 ft 21 kts 288°
2026-04-26 20:38 50.87456 7.13308 233 ft 25 kts 318°
2026-04-26 20:38 50.87592 7.13112 233 ft 27 kts 317°
2026-04-26 20:38 50.87707 7.12944 233 ft 19 kts 317°
2026-04-26 20:39 50.87787 7.12802 232 ft 16 kts 286°
2026-04-26 20:39 50.87768 7.12628 232 ft 16 kts 255°
2026-04-26 20:39 50.87725 7.12535 232 ft 9 kts 211°
2026-04-26 20:39 50.87716 7.12470 232 ft 5 kts 294°
2026-04-26 20:40 50.87729 7.12413 232 ft 2 kts 288°
2026-04-26 20:40 50.87733 7.12390 234 ft 1 kts 288°
2026-04-26 20:40 50.87734 7.12389 234 ft 0 kts 288°